YO8SSH-13 Weather Reports


Display with metric or nautical units.
time (UTC)temp
F
wind
direction
speed
MPH
gust
MPH
rain 1hr
in
rain 24hr
in
rain mn
in
humidity
%
barometer
mb
20260507042027 52 292 0.0 0.0 0.00 0.00 0.00 67 1011.0
20260507040528 52 292 0.0 0.0 0.00 0.00 0.00 67 1011.0
20260507035026 52 292 0.0 0.0 0.00 0.00 0.00 66 1011.0
20260507033527 52 22 0.0 0.0 0.00 0.00 0.00 67 1011.0
20260507032028 52 22 0.0 0.0 0.00 0.00 0.00 66 1011.0
20260507030527 52 68 0.0 0.0 0.00 0.00 0.00 66 1011.0
20260507025030 52 68 0.0 0.0 0.00 0.00 0.00 65 1011.0
20260507023527 52 90 0.0 0.0 0.00 0.00 0.00 63 1011.0
20260507022027 52 90 0.0 0.0 0.00 0.00 0.00 63 1011.0
20260507020527 52 225 0.0 0.0 0.00 0.00 0.00 63 1011.0
20260507015028 53 248 0.0 0.0 0.00 0.00 0.00 62 1011.0
20260507013527 53 292 0.0 0.0 0.00 0.00 0.00 61 1011.0
20260507012026 54 292 0.0 0.0 0.00 0.00 0.00 61 1011.0
20260507010526 54 315 0.0 0.0 0.00 0.00 0.00 59 1011.0
20260507005027 55 315 0.0 0.0 0.00 0.00 0.00 59 1011.0
20260507003527 55 0 0.0 0.0 0.00 0.00 0.00 59 1011.0
20260507002026 55 338 0.0 0.0 0.00 0.00 0.00 59 1011.0
20260507000528 56 315 0.0 0.0 0.00 0.00 0.00 58 1010.0
20260506235026 56 0 0.0 0.0 0.00 0.00 0.00 58 1011.0
20260506233527 56 0 0.0 0.0 0.00 0.00 0.00 58 1010.0
20260506232026 57 270 0.0 0.0 0.00 0.00 0.00 57 1011.0
20260506230534 58 22 0.0 0.0 0.00 0.00 0.00 56 1010.0
20260506225026 58 338 0.0 0.0 0.00 0.00 0.00 55 1010.0
20260506223526 58 292 0.0 0.0 0.00 0.00 0.00 54 1010.0
20260506222027 59 292 0.0 0.0 0.00 0.00 0.00 53 1010.0
20260506220528 60 135 0.0 0.0 0.00 0.00 0.00 52 1010.0
20260506215026 60 135 0.0 0.0 0.00 0.00 0.00 50 1010.0
20260506213527 61 135 0.0 0.0 0.00 0.00 0.00 50 1010.0
20260506212027 61 135 0.0 0.0 0.00 0.00 0.00 48 1010.0
20260506210529 62 135 0.0 0.0 0.00 0.00 0.00 48 1010.0
20260506205027 62 112 0.0 0.0 0.00 0.00 0.00 46 1010.0
20260506203527 63 90 0.0 0.0 0.00 0.00 0.00 47 1010.0
20260506202027 64 158 0.0 0.0 0.00 0.00 0.00 46 1010.0
20260506200527 64 135 0.0 0.0 0.00 0.00 0.00 46 1010.0
20260506195027 65 135 0.0 0.0 0.00 0.00 0.00 45 1010.0
20260506193526 65 158 0.0 2.0 0.00 0.00 0.00 45 1010.0
20260506192027 66 135 0.0 0.0 0.00 0.00 0.00 43 1010.0
20260506190526 67 180 0.0 0.0 0.00 0.00 0.00 42 1009.0
20260506185027 68 112 0.0 2.0 0.00 0.00 0.00 41 1009.0
20260506183528 68 180 0.0 2.0 0.00 0.00 0.00 40 1009.0
20260506182026 69 90 0.0 3.0 0.00 0.00 0.00 39 1009.0
20260506180528 70 135 0.0 2.0 0.00 0.00 0.00 37 1009.0
20260506175027 71 180 0.0 2.0 0.00 0.00 0.00 36 1009.0
20260506173526 72 90 0.0 4.0 0.00 0.00 0.00 35 1009.0
20260506172027 73 68 0.0 3.0 0.00 0.00 0.00 33 1009.0
20260506170527 74 158 1.0 12.0 0.00 0.00 0.00 31 1008.0
20260506165026 75 158 4.0 4.0 0.00 0.00 0.00 30 1008.0
20260506163527 76 158 5.0 5.0 0.00 0.00 0.00 29 1008.0
20260506162027 77 180 0.0 9.0 0.00 0.00 0.00 28 1008.0
20260506160527 79 158 6.0 6.0 0.00 0.00 0.00 27 1009.0
20260506155028 80 90 7.0 7.0 0.00 0.00 0.00 26 1009.0
20260506153526 81 135 8.0 9.0 0.00 0.00 0.00 25 1009.0
20260506152030 82 90 4.0 4.0 0.00 0.00 0.00 24 1009.0
20260506150527 82 202 13.0 13.0 0.00 0.00 0.00 24 1009.0
20260506145027 82 180 6.0 6.0 0.00 0.00 0.00 24 1009.0
20260506143526 83 158 6.0 6.0 0.00 0.00 0.00 23 1009.0
20260506142027 83 158 0.0 6.0 0.00 0.00 0.00 25 1009.0
20260506140531 84 112 2.0 2.0 0.00 0.00 0.00 23 1009.0
20260506135026 84 112 6.0 11.0 0.00 0.00 0.00 23 1009.0
20260506133527 85 180 4.0 6.0 0.00 0.00 0.00 22 1009.0
20260506132027 85 90 2.0 4.0 0.00 0.00 0.00 23 1009.0
20260506130527 86 135 3.0 8.0 0.00 0.00 0.00 22 1009.0
20260506125029 86 180 3.0 4.0 0.00 0.00 0.00 22 1009.0
20260506123527 86 90 2.0 9.0 0.00 0.00 0.00 22 1009.0
20260506122027 86 158 3.0 6.0 0.00 0.00 0.00 22 1009.0
20260506120527 86 135 0.0 6.0 0.00 0.00 0.00 23 1009.0
20260506115026 86 135 4.0 5.0 0.00 0.00 0.00 23 1009.0
20260506113527 86 158 1.0 2.0 0.00 0.00 0.00 23 1010.0
20260506112027 86 90 3.0 3.0 0.00 0.00 0.00 22 1010.0
20260506110527 86 135 2.0 5.0 0.00 0.00 0.00 22 1010.0
20260506105026 85 112 3.0 6.0 0.00 0.00 0.00 23 1010.0
20260506103526 85 248 2.0 2.0 0.00 0.00 0.00 23 1010.0
20260506102026 84 112 9.0 9.0 0.00 0.00 0.00 22 1010.0
20260506100526 84 202 2.0 6.0 0.00 0.00 0.00 23 1010.0
20260506095027 83 158 3.0 3.0 0.00 0.00 0.00 23 1010.0
20260506093527 83 112 2.0 4.0 0.00 0.00 0.00 23 1010.0
20260506092025 82 135 5.0 8.0 0.00 0.00 0.00 23 1010.0
20260506090527 82 292 1.0 4.0 0.00 0.00 0.00 26 1010.0
20260506085037 82 158 2.0 4.0 0.00 0.00 0.00 27 1010.0
20260506083527 81 90 1.0 2.0 0.00 0.00 0.00 29 1011.0
20260506082026 80 112 2.0 2.0 0.00 0.00 0.00 31 1011.0
20260506080526 79 135 0.0 2.0 0.00 0.00 0.00 32 1011.0
20260506073525 76 180 0.0 2.0 0.00 0.00 0.00 38 1011.0
20260506072027 75 90 4.0 4.0 0.00 0.00 0.00 39 1010.0
20260506070527 74 135 1.0 2.0 0.00 0.00 0.00 40 1010.0
20260506062027 70 68 1.0 1.0 0.00 0.00 0.00 45 1011.0
20260506060526 68 68 0.0 0.0 0.00 0.00 0.00 47 1010.0